[[{"header":{"parameterUnit":"m.s-1","parameterCategory":1,"la1":30.2991,"la2":30.254,"lo1":-89.0895,"lo2":-89.0444,"dy":0.0017,"dx":0.0017,"nx":28,"ny":28,"refTime":"2023-10-02T09:00:00:Z","depth":0,"parameterNumber":2,"parameterNumberName":"U-component_of_WINDS"},"data":[0,0,0,0,0,0,0,0,0,0,0,0,0,0,0,0,0,0,0,0,0,0,0,0,0,0,0,0,0,0,0,0,0,0,0,0,0,0,0,0,0,0,0,0,0,0,0,0,0,0,0,0,0,0,0,0,0,0,-5.8216,-5.8216,0,-5.8228,-5.8228,-5.8229,-5.8114,-5.8111,-5.8108,-5.8105,-5.8119,-5.8122,-5.8126,0,0,0,0,0,0,0,0,0,0,0,0,0,-5.8096,-5.8099,-5.8216,-5.8216,-5.8216,-5.8228,-5.8228,-5.8229,-5.8115,-5.8111,-5.8107,-5.8103,-5.8118,-5.8122,-5.8126,0,0,0,0,0,0,0,0,0,0,0,0,0,-5.8132,-5.81,-5.8216,-5.8161,-5.8156,-5.8228,-5.8228,-5.8229,-5.8115,-5.8111,-5.8106,-5.8101,-5.8117,-5.8121,-5.8126,-5.8253,0,0,-5.8142,-5.8144,0,0,0,0,0,0,0,0,-5.813,-5.8137,-5.8169,-5.8164,-5.8159,-5.8165,-5.8191,-5.8237,-5.8117,-5.8131,-5.8105,-5.8099,-5.8138,-5.8141,-5.8154,-5.8253,-5.8254,-5.8142,-5.8145,-5.8147,-5.8149,0,0,0,0,0,0,0,-5.8128,-5.8136,-5.8221,-5.8169,-5.8164,-5.8136,-5.8136,-5.8199,-5.8161,-5.8129,-5.8121,-5.8124,-5.8135,-5.8149,-5.8153,-5.8254,-5.8142,-5.8147,-5.815,-5.8152,-5.8459,-5.8464,0,0,0,0,0,0,-5.8133,-5.8134,-5.822,-5.8221,-5.8133,-5.8142,-5.8142,-5.8168,-5.816,-5.8154,-5.8128,-5.8118,-5.8143,-5.8148,-5.8154,-5.83,-5.8147,-5.8152,-5.8155,-5.8454,-5.846,-5.8466,0,0,0,0,0,0,-5.8131,-5.8141,-5.822,-5.8175,-5.8183,-5.8149,-5.8179,-5.8171,-5.8185,-5.8159,-5.8152,-5.815,-5.814,-5.8146,-5.8229,-5.8299,-5.8154,-5.8159,-5.8448,-5.8456,-5.8463,-5.8596,0,0,0,0,0,0,-5.8128,-5.8141,-5.8188,-5.8177,-5.8186,-5.8294,-5.8183,-5.8174,-5.8194,-5.8181,-5.8178,-5.8172,-5.8136,-5.8222,-5.8234,-5.8303,-5.8163,-5.8442,-5.8452,-5.8461,-5.8585,-5.8607,-5.8626,0,0,0,0,0,-5.8124,-5.8225,-5.8191,-5.8202,-5.8244,-5.8298,-5.8303,-5.8259,-5.82,-5.8247,-5.8231,-5.8172,-5.8291,-5.8232,-5.8244,-5.8316,-5.8437,-5.8449,-5.846,-5.8575,-5.8602,-5.8625,0,0,0,0,0,0,-5.8244,-5.8222,-5.8184,-5.8285,-5.8295,-5.8279,-5.8336,-5.829,-5.8316,-5.8304,-5.8249,-5.8249,-5.8341,-5.8337,-5.8272,-5.8439,-5.8353,-5.8368,-5.8437,-5.8462,-5.8483,-5.848,-5.8167,0,0,0,0,0,-5.8282,-5.8328,-5.8307,-5.8398,-5.8405,-5.8371,-5.8393,-5.8358,-5.8366,-5.837,-5.8359,-5.837,-5.8409,-5.8436,-5.8471,-5.8585,-5.8583,-5.8641,-5.8662,-5.8679,-5.8691,-5.8752,-5.8777,-5.8504,-5.8504,-5.8504,0,0,-5.8361,-5.8355,-5.8387,-5.8422,-5.8425,-5.8474,-5.8374,-5.843,-5.8466,-5.8378,-5.8454,-5.8449,-5.8457,-5.8556,-5.8599,-5.8556,-5.8767,-5.8694,-5.8707,-5.871,-5.8766,-5.8792,-5.8815,-5.8512,-5.8511,-5.8509,0,0,-5.853,-5.8531,-5.8606,-5.8612,-5.8619,-5.8596,-5.8615,-5.8608,-5.86,-5.8676,-5.8611,-5.8655,-5.8724,-5.8732,-5.8746,-5.8923,-5.887,-5.8936,-5.9042,-5.9102,-5.9123,-5.9142,-5.9204,-5.9227,-5.8949,-5.895,-5.895,0,-5.8627,-5.8698,-5.8651,-5.8712,-5.8729,-5.8653,-5.8729,-5.8738,-5.8756,-5.8771,-5.8722,-5.8808,-5.8809,-5.8908,-5.8952,-5.8966,-5.8986,-5.8934,-5.9124,-5.9142,-5.9159,-5.9217,-5.9241,-5.8957,-5.8956,-5.8956,-5.8955,0,-5.8817,-5.8867,-5.8928,-5.8947,-5.8972,-5.9041,-5.9005,-5.9036,-5.9002,-5.8985,-5.9065,-5.9063,-5.9096,-5.9119,-5.9085,-5.9215,-5.9188,-5.9133,-5.9045,-5.9193,-5.9247,-5.9269,-5.8969,-5.8966,-5.8963,-5.8961,0,0,-5.9057,-5.9052,-5.9075,-5.9083,-5.9087,-5.9125,-5.9192,-5.9225,-5.9252,-5.9269,-5.9323,-5.9385,-5.9335,-5.9351,-5.9318,-5.9371,-5.9511,-5.931,-5.9309,-5.9345,-5.9653,-5.9692,-5.9718,-5.9478,-5.9482,-5.9485,-5.9652,0,-5.9219,-5.933,-5.9292,-5.9406,-5.9452,-5.9383,-5.9441,-5.9451,-5.9438,-5.9476,-5.9463,-5.9507,-5.9438,-5.9447,-5.9496,-5.9483,-5.9571,-5.9471,-5.9527,-5.9529,-5.9523,-5.9747,-5.9787,-5.9944,-5.9673,-5.9676,-5.9679,0,-5.9422,-5.9447,-5.9566,-5.9563,-5.9581,-5.9634,-5.9661,-5.9699,-5.971,-5.9697,-5.9717,-5.9674,-5.974,-5.9656,-5.9747,-5.968,-5.9702,-5.9699,-5.9704,-5.9705,-5.961,-5.9751,-5.9993,-6.0016,-5.9712,-5.9709,-5.9707,0,-5.9583,-5.9647,-5.9726,-5.9736,-5.9735,-5.9774,-5.9776,-5.9781,-5.9804,-5.983,-5.9844,-5.9878,-5.9896,-5.9923,-5.9891,-5.9833,-5.9987,-5.99,-5.9978,-5.9979,-6.001,-6.0007,-6.0256,-6.003,-6.0029,-6.0029,-6.0028,0,-5.9767,-5.9841,-5.9798,-5.9846,-5.9929,-5.9886,-5.9969,-5.9963,-5.997,-6.0017,-5.9961,-6.0006,-5.9963,-6.0005,-5.9981,-6.006,-6.0069,-6.006,-6.0052,-6.0063,-6.0064,-6.0074,-6.0061,-6.0035,-6.0034,-6.0032,-6.0031,0,-5.9958,-5.9932,-6.0013,-6.0007,-6.0008,-6.0069,-6.0064,-6.0109,-6.0094,-6.0154,-6.0166,-6.0142,-6.0189,-6.0162,-6.021,-6.0194,-6.0296,-6.0274,-6.0291,-6.0284,-6.0363,-6.0355,-6.0624,-6.0656,-6.0412,-6.0414,-6.0416,0,-6.0074,-6.013,-6.0131,-6.0158,-6.0164,-6.0209,-6.0232,-6.0194,-6.0221,-6.0239,-6.0282,-6.0325,-6.0355,-6.0434,-6.0422,-6.0459,-6.0436,-6.0529,-6.0441,-6.0451,-6.0435,-6.0431,-6.0436,-6.0545,-6.0548,-6.055,-6.0552,0,-6.0284,-6.0269,-6.0304,-6.0337,-6.0367,-6.039,-6.0409,-6.0435,-6.0398,-6.0431,-6.0478,-6.0503,-6.0553,-6.0595,-6.0628,-6.063,-6.0585,-6.058,-6.06,-6.0609,-6.0616,-6.0611,-6.0336,-6.0573,-6.0571,-6.0569,-6.0568,-6.0567,-6.0439,-6.0486,-6.0494,-6.0536,-6.0547,-6.0567,-6.0609,-6.0601,-6.0639,-6.0676,-6.0652,-6.0708,-6.072,-6.0758,-6.0768,-6.0812,-6.0775,-6.0804,-6.081,-6.0817,-6.0827,-6.0613,-6.0818,-6.0818,-6.0817,-6.0816,-6.0816,0,-6.0644,-6.0647,-6.0686,-6.0715,-6.0749,-6.0705,-6.0725,-6.0756,-6.0806,-6.0821,-6.0853,-6.0909,-6.0951,-6.0944,-6.0982,-6.1019,-6.0999,-6.103,-6.1025,-6.1027,-6.0859,-6.0837,-6.1045,-6.1045,-6.1045,-6.1045,-6.1045,-6.1045,-6.0754,-6.083,-6.0817,-6.09,-6.0902,-6.0956,-6.0971,-6.099,-6.1001,-6.1065,-6.11,-6.1096,-6.1102,-6.1141,-6.1179,-6.1176,-6.1192,-6.123,-6.1219,-6.1061,-6.1038,-6.1017,-6.0996,-6.1234,-6.1235,-6.1383,-6.1384,-6.1385]},{"header":{"parameterUnit":"m.s-1","parameterCategory":1,"la1":30.2991,"la2":30.254,"lo1":-89.0895,"lo2":-89.0444,"dy":0.0017,"dx":0.0017,"nx":28,"ny":28,"refTime":"2023-10-02T09:00:00:Z","depth":0,"parameterNumber":3,"parameterNumberName":"V-component_of_WINDS"},"data":[0,0,0,0,0,0,0,0,0,0,0,0,0,0,0,0,0,0,0,0,0,0,0,0,0,0,0,0,0,0,0,0,0,0,0,0,0,0,0,0,0,0,0,0,0,0,0,0,0,0,0,0,0,0,0,0,0,0,1.3179,1.3179,0,1.3217,1.3217,1.3218,1.3285,1.3287,1.3288,1.3289,1.3323,1.3323,1.3323,0,0,0,0,0,0,0,0,0,0,0,0,0,1.3163,1.3162,1.3179,1.318,1.318,1.3217,1.3217,1.3218,1.3285,1.3287,1.3288,1.329,1.3323,1.3323,1.3323,0,0,0,0,0,0,0,0,0,0,0,0,0,1.3182,1.3162,1.3179,1.3218,1.3222,1.3217,1.3217,1.3218,1.3285,1.3287,1.3289,1.329,1.3324,1.3323,1.3323,1.3281,0,0,1.3321,1.3321,0,0,0,0,0,0,0,0,1.3181,1.3182,1.3212,1.3215,1.322,1.3249,1.3224,1.3239,1.3284,1.3261,1.3289,1.3291,1.3297,1.3298,1.3301,1.3283,1.3284,1.3321,1.3321,1.3321,1.3321,0,0,0,0,0,0,0,1.3179,1.3181,1.3194,1.3212,1.3217,1.3233,1.3238,1.3227,1.3267,1.3263,1.3268,1.3272,1.3299,1.3301,1.3302,1.3285,1.3321,1.3321,1.3321,1.332,1.3236,1.3234,0,0,0,0,0,0,1.3173,1.3179,1.3193,1.3195,1.3205,1.3232,1.3237,1.3237,1.3267,1.3274,1.327,1.3275,1.3301,1.3303,1.3304,1.3258,1.3321,1.332,1.332,1.3238,1.3235,1.3233,0,0,0,0,0,0,1.3172,1.3173,1.3191,1.3189,1.3192,1.323,1.3229,1.3237,1.3239,1.3273,1.328,1.3265,1.3303,1.3305,1.3287,1.326,1.332,1.332,1.324,1.3237,1.3234,1.3165,0,0,0,0,0,0,1.3171,1.3173,1.3157,1.3188,1.3192,1.3174,1.3228,1.3236,1.3239,1.3245,1.327,1.3276,1.3304,1.3287,1.3286,1.3261,1.3319,1.3242,1.3239,1.3235,1.317,1.316,1.3152,0,0,0,0,0,1.317,1.3135,1.3156,1.3157,1.3174,1.3172,1.3175,1.3209,1.3237,1.3221,1.3243,1.3275,1.3264,1.3285,1.3285,1.3258,1.3244,1.324,1.3235,1.3174,1.3162,1.3152,0,0,0,0,0,0,1.3098,1.314,1.3164,1.3137,1.3151,1.3184,1.3166,1.3195,1.32,1.3206,1.3247,1.3252,1.3229,1.3242,1.3265,1.322,1.3259,1.3254,1.3212,1.3201,1.3193,1.3189,1.3319,0,0,0,0,0,1.308,1.3076,1.3112,1.3085,1.3091,1.3127,1.3127,1.3153,1.3168,1.3174,1.3195,1.3207,1.3207,1.3205,1.3206,1.3173,1.3179,1.3155,1.3146,1.3138,1.3133,1.3117,1.3107,1.3218,1.3218,1.3218,0,0,1.304,1.3062,1.3057,1.3071,1.3085,1.3079,1.3131,1.3122,1.3119,1.3172,1.3157,1.3173,1.319,1.3165,1.3155,1.3175,1.3104,1.3132,1.3126,1.3125,1.3112,1.3101,1.3092,1.3215,1.3216,1.3216,0,0,1.2966,1.2982,1.2963,1.2976,1.2997,1.3022,1.3017,1.3046,1.3059,1.3045,1.3086,1.3082,1.3079,1.309,1.3095,1.3028,1.3058,1.3027,1.2979,1.2963,1.2955,1.2947,1.2923,1.2914,1.3022,1.3022,1.3022,0,1.2913,1.2908,1.2948,1.2938,1.2943,1.2994,1.2974,1.2985,1.3004,1.3006,1.3029,1.3029,1.3044,1.3022,1.3006,1.3009,1.3004,1.3023,1.2953,1.2946,1.2939,1.2917,1.2908,1.3018,1.3019,1.3019,1.3019,0,1.2843,1.2839,1.282,1.284,1.2843,1.2828,1.2866,1.2864,1.289,1.2912,1.2898,1.2918,1.2925,1.2922,1.2947,1.2905,1.2917,1.2946,1.2985,1.2924,1.2904,1.2896,1.3013,1.3014,1.3015,1.3016,0,0,1.2722,1.2767,1.2759,1.2769,1.2797,1.2794,1.2782,1.2791,1.2788,1.2801,1.2791,1.279,1.2817,1.2823,1.285,1.2836,1.2782,1.2867,1.2868,1.285,1.2738,1.2716,1.2705,1.2803,1.2802,1.28,1.2737,0,1.2653,1.2635,1.2672,1.2645,1.2642,1.2692,1.2681,1.2697,1.2718,1.2717,1.274,1.2739,1.2775,1.2779,1.2768,1.2791,1.276,1.2796,1.2794,1.2793,1.2787,1.2695,1.2671,1.2609,1.2729,1.2728,1.2727,0,1.257,1.258,1.2553,1.2585,1.2585,1.2575,1.2587,1.2586,1.2605,1.2622,1.263,1.2662,1.2652,1.2691,1.2677,1.2701,1.2703,1.2714,1.2712,1.2713,1.2755,1.2692,1.2591,1.2581,1.2715,1.2716,1.2716,0,1.2484,1.2492,1.2477,1.2484,1.2521,1.2513,1.2527,1.2549,1.2552,1.2562,1.2565,1.2573,1.2577,1.2583,1.2616,1.2642,1.2599,1.2641,1.2612,1.2611,1.2599,1.2599,1.2496,1.2601,1.2601,1.2601,1.2601,0,1.2403,1.2385,1.244,1.243,1.2412,1.2455,1.2435,1.2454,1.2473,1.2468,1.2511,1.2506,1.2551,1.255,1.2576,1.2561,1.2563,1.2575,1.2582,1.2571,1.257,1.2572,1.2577,1.2599,1.2599,1.26,1.26,0,1.2304,1.234,1.2327,1.2364,1.2373,1.2357,1.2388,1.2381,1.2406,1.24,1.2401,1.2439,1.2441,1.2475,1.2483,1.2501,1.2476,1.2491,1.2469,1.2474,1.2443,1.2446,1.2338,1.2326,1.2438,1.2437,1.2436,0,1.2249,1.2237,1.2273,1.2274,1.2287,1.2287,1.2292,1.2334,1.2337,1.236,1.235,1.2356,1.2362,1.2363,1.239,1.2397,1.2413,1.2375,1.2414,1.2404,1.2412,1.2413,1.2412,1.2366,1.2364,1.2363,1.2362,0,1.2149,1.2168,1.2174,1.2186,1.2191,1.2202,1.2216,1.2214,1.2261,1.2262,1.2265,1.227,1.2281,1.2285,1.2298,1.2313,1.2345,1.235,1.2344,1.2332,1.232,1.2327,1.2446,1.2352,1.2353,1.2354,1.2354,1.2355,1.2071,1.2062,1.2087,1.2093,1.2108,1.2121,1.2117,1.2142,1.2146,1.2159,1.2183,1.2183,1.2204,1.2225,1.2237,1.2237,1.2256,1.2247,1.2245,1.2242,1.2236,1.2321,1.2239,1.224,1.224,1.224,1.224,0,1.1973,1.1992,1.1997,1.2016,1.202,1.2053,1.2071,1.2072,1.2071,1.2089,1.2096,1.21,1.2106,1.2136,1.2145,1.2139,1.2154,1.214,1.214,1.2143,1.2218,1.2222,1.2128,1.2128,1.2128,1.2128,1.2128,1.2128,1.1923,1.1911,1.1933,1.193,1.1949,1.1951,1.1958,1.197,1.1985,1.1988,1.1994,1.2014,1.2037,1.2048,1.2055,1.2064,1.2065,1.2045,1.2059,1.2127,1.2138,1.2148,1.2153,1.2045,1.2045,1.1985,1.1984,1.1984]}]]